Location: Newark
(54.6833°N, 25.2833°E)
Time: 02:28:56
(UTC+00:00)

A-11 Canister half - Pass Details

Date: 23 January 2021
Orbit: 1525 x 1684 km, 47.3° (Epoch: 05 March)

Event Time Altitude Azimuth Distance (km) Brightness Sun altitude
Rises 19:00:19 0° 282° (WNW) 4,760 12.5 -36.9°
Reaches altitude 10° 19:03:45 10° 273° (W) 3,796 11.7 -37.4°
Maximum altitude 19:11:55 33° 215° (SW) 2,494 10.1 -38.4°
Enters shadow 19:13:04 32° 203° (SSW) 2,533 10.0 -38.6°
